Time,TemperatureF,DewpointF,PressureIn,WindDirection,WindDirectionDegrees,WindSpeedMPH,WindSpeedGustMPH,Humidity,HourlyPrecipIn,Conditions,Clouds,dailyrainin,SolarRadiationWatts/m^2,SoftwareType,DateUTC
2013-06-25 00:01:00,71.4,69.9,29.81,ESE,111,0.0,0.0,95,0.00,RA,,0.00,0.0,WeatherDisplay:10.37,2013-06-25 05:01:00,
2013-06-25 00:06:00,71.4,69.9,29.80,ESE,111,0.0,0.0,95,0.00,FEW,,0.00,0.0,WeatherDisplay:10.37,2013-06-25 05:06:00,
2013-06-25 00:11:00,71.5,70.0,29.80,ESE,111,0.0,0.0,95,0.00,FEW,,0.00,0.0,WeatherDisplay:10.37,2013-06-25 05:11:00,
2013-06-25 00:16:00,71.5,70.0,29.80,ESE,111,0.0,0.0,95,0.00,FEW,,0.00,0.0,WeatherDisplay:10.37,2013-06-25 05:16:00,
2013-06-25 00:22:00,71.4,69.9,29.80,ESE,111,0.0,0.0,95,0.00,FEW,,0.00,0.0,WeatherDisplay:10.37,2013-06-25 05:22:00,
2013-06-25 00:32:00,71.5,70.0,29.79,ESE,111,0.0,0.0,95,0.00,FEW,,0.00,0.0,WeatherDisplay:10.37,2013-06-25 05:32:00,
2013-06-25 00:37:00,71.6,70.1,29.79,ESE,111,0.0,0.0,95,0.00,FEW,FEW,0.00,0.0,WeatherDisplay:10.37,2013-06-25 05:37:00,
2013-06-25 00:42:00,71.7,70.5,29.79,ESE,111,0.0,1.0,96,0.00,FEW,FEW,0.00,0.0,WeatherDisplay:10.37,2013-06-25 05:42:00,
2013-06-25 00:47:00,71.8,70.6,29.78,ESE,112,0.0,0.0,96,0.00,FEW,FEW,0.00,0.0,WeatherDisplay:10.37,2013-06-25 05:47:00,
2013-06-25 00:52:00,71.9,70.4,29.78,ESE,113,0.0,0.0,95,0.00,FEW,,0.00,0.0,WeatherDisplay:10.37,2013-06-25 05:52:00,
2013-06-25 00:57:00,72.0,70.5,29.78,ESE,113,0.0,0.0,95,0.00,FEW,,0.00,0.0,WeatherDisplay:10.37,2013-06-25 05:57:00,
2013-06-25 01:03:00,72.1,70.6,29.78,ESE,113,0.0,0.0,95,0.00,BKN,,0.00,0.0,WeatherDisplay:10.37,2013-06-25 06:03:00,
2013-06-25 01:08:00,72.2,70.7,29.78,ESE,113,0.0,0.0,95,0.00,BKN,,0.00,0.0,WeatherDisplay:10.37,2013-06-25 06:08:00,
2013-06-25 01:13:00,72.3,70.8,29.77,ESE,113,0.0,0.0,95,0.00,BKN,,0.00,0.0,WeatherDisplay:10.37,2013-06-25 06:13:00,
2013-06-25 01:18:00,72.3,70.8,29.77,ENE,74,0.0,0.0,95,0.00,BKN,,0.00,0.0,WeatherDisplay:10.37,2013-06-25 06:18:00,
2013-06-25 01:24:00,72.4,70.9,29.77,ENE,74,0.0,0.0,95,0.00,BKN,,0.00,0.0,WeatherDisplay:10.37,2013-06-25 06:24:00,
2013-06-25 01:29:00,72.4,70.9,29.77,ENE,74,0.0,0.0,95,0.00,BKN,,0.00,0.0,WeatherDisplay:10.37,2013-06-25 06:29:00,
2013-06-25 01:34:00,72.3,70.8,29.77,ENE,74,0.0,0.0,95,0.00,BKN,,0.00,0.0,WeatherDisplay:10.37,2013-06-25 06:34:00,
2013-06-25 01:39:00,72.3,70.8,29.77,South,172,0.0,0.0,95,0.00,BKN,,0.00,0.0,WeatherDisplay:10.37,2013-06-25 06:39:00,
2013-06-25 01:45:00,72.3,70.8,29.77,ESE,122,0.0,0.0,95,0.00,BKN,,0.00,0.0,WeatherDisplay:10.37,2013-06-25 06:45:00,
2013-06-25 01:50:00,72.2,70.7,29.77,ESE,122,0.0,0.0,95,0.00,BKN,,0.00,0.0,WeatherDisplay:10.37,2013-06-25 06:50:00,
2013-06-25 01:55:00,72.2,70.7,29.77,ESE,122,0.0,0.0,95,0.00,BKN,,0.00,0.0,WeatherDisplay:10.37,2013-06-25 06:55:00,
2013-06-25 02:00:00,72.2,70.7,29.77,ESE,122,0.0,0.0,95,0.00,BKN,,0.00,0.0,WeatherDisplay:10.37,2013-06-25 07:00:00,
2013-06-25 02:06:00,72.2,70.7,29.77,ESE,122,0.0,0.0,95,0.00,BKN,,0.00,0.0,WeatherDisplay:10.37,2013-06-25 07:06:00,
2013-06-25 02:11:00,72.2,70.7,29.77,ESE,122,0.0,0.0,95,0.00,BKN,,0.00,0.0,WeatherDisplay:10.37,2013-06-25 07:11:00,
2013-06-25 02:16:00,72.1,70.6,29.77,ESE,122,0.0,0.0,95,0.00,BKN,,0.00,0.0,WeatherDisplay:10.37,2013-06-25 07:16:00,
2013-06-25 02:21:00,72.0,70.5,29.77,ESE,122,0.0,0.0,95,0.00,BKN,,0.00,0.0,WeatherDisplay:10.37,2013-06-25 07:21:00,
2013-06-25 02:27:00,71.9,70.4,29.77,ESE,122,0.0,0.0,95,0.00,BKN,,0.00,0.0,WeatherDisplay:10.37,2013-06-25 07:27:00,
2013-06-25 02:32:00,71.9,70.4,29.76,ESE,122,0.0,0.0,95,0.00,BKN,BKN,0.00,0.0,WeatherDisplay:10.37,2013-06-25 07:32:00,
2013-06-25 02:37:00,71.8,70.3,29.76,ESE,122,0.0,0.0,95,0.00,BKN,,0.00,0.0,WeatherDisplay:10.37,2013-06-25 07:37:00,
2013-06-25 02:42:00,71.7,70.2,29.76,ESE,122,0.0,0.0,95,0.00,BKN,,0.00,0.0,WeatherDisplay:10.37,2013-06-25 07:42:00,
2013-06-25 02:47:00,71.7,70.2,29.76,ESE,122,0.0,0.0,95,0.00,BKN,,0.00,0.0,WeatherDisplay:10.37,2013-06-25 07:47:00,
2013-06-25 02:53:00,71.8,70.6,29.76,ESE,122,0.0,0.0,96,0.00,BKN,,0.00,0.0,WeatherDisplay:10.37,2013-06-25 07:53:00,
2013-06-25 02:58:00,71.9,70.7,29.76,ESE,122,0.0,0.0,96,0.00,BKN,,0.00,0.0,WeatherDisplay:10.37,2013-06-25 07:58:00,
2013-06-25 03:03:00,71.9,70.4,29.76,ESE,122,0.0,0.0,95,0.00,BKN,,0.00,0.0,WeatherDisplay:10.37,2013-06-25 08:03:00,
2013-06-25 03:08:00,71.9,70.7,29.76,ESE,122,0.0,0.0,96,0.00,BKN,,0.00,0.0,WeatherDisplay:10.37,2013-06-25 08:08:00,
2013-06-25 03:14:00,71.9,70.7,29.76,ESE,122,0.0,0.0,96,0.00,BKN,,0.00,0.0,WeatherDisplay:10.37,2013-06-25 08:14:00,
2013-06-25 03:19:00,71.9,70.7,29.76,ESE,122,0.0,0.0,96,0.00,BKN,,0.00,0.0,WeatherDisplay:10.37,2013-06-25 08:19:00,
2013-06-25 03:24:00,71.9,70.7,29.76,ESE,122,0.0,0.0,96,0.00,BKN,,0.00,0.0,WeatherDisplay:10.37,2013-06-25 08:24:00,
2013-06-25 03:29:00,71.9,70.4,29.76,ESE,122,0.0,0.0,95,0.00,BKN,,0.00,0.0,WeatherDisplay:10.37,2013-06-25 08:29:00,
2013-06-25 03:35:00,72.0,70.5,29.76,ESE,122,0.0,0.0,95,0.00,BKN,,0.00,0.0,WeatherDisplay:10.37,2013-06-25 08:35:00,
2013-06-25 03:40:00,71.9,70.4,29.77,South,189,0.0,0.0,95,0.00,BKN,,0.00,0.0,WeatherDisplay:10.37,2013-06-25 08:40:00,
2013-06-25 03:45:00,72.0,70.8,29.79,South,189,0.0,0.0,96,0.00,BKN,,0.00,0.0,WeatherDisplay:10.37,2013-06-25 08:45:00,
2013-06-25 03:50:00,72.0,70.8,29.79,South,189,0.0,0.0,96,0.00,BKN,,0.00,0.0,WeatherDisplay:10.37,2013-06-25 08:50:00,
2013-06-25 03:56:00,72.0,70.8,29.80,South,189,0.0,0.0,96,0.00,BKN,,0.00,0.0,WeatherDisplay:10.37,2013-06-25 08:56:00,
2013-06-25 04:01:00,72.1,70.9,29.80,South,189,0.0,0.0,96,0.00,OVC,,0.00,0.0,WeatherDisplay:10.37,2013-06-25 09:01:00,
2013-06-25 04:06:00,72.1,70.9,29.80,West,274,0.2,0.0,96,0.00,OVC,,0.00,0.0,WeatherDisplay:10.37,2013-06-25 09:06:00,
2013-06-25 04:11:00,72.1,70.9,29.79,West,274,0.0,0.0,96,0.00,OVC,,0.00,0.0,WeatherDisplay:10.37,2013-06-25 09:11:00,
2013-06-25 04:17:00,72.2,71.0,29.78,West,279,0.0,0.0,96,0.00,OVC,,0.00,0.0,WeatherDisplay:10.37,2013-06-25 09:17:00,
2013-06-25 04:22:00,72.2,71.0,29.78,NW,325,0.0,3.0,96,0.00,OVC,OVC,0.00,0.0,WeatherDisplay:10.37,2013-06-25 09:22:00,
2013-06-25 04:27:00,72.2,70.7,29.78,NE,41,0.0,1.0,95,0.00,OVC,OVC,0.00,0.0,WeatherDisplay:10.37,2013-06-25 09:27:00,
2013-06-25 04:32:00,72.1,70.6,29.77,NE,41,0.0,0.0,95,0.00,OVC,,0.00,0.0,WeatherDisplay:10.37,2013-06-25 09:32:00,
2013-06-25 04:37:00,72.1,70.6,29.76,NE,41,0.0,0.0,95,0.00,OVC,OVC,0.00,0.0,WeatherDisplay:10.37,2013-06-25 09:37:00,
2013-06-25 04:42:00,72.0,70.5,29.76,NE,41,0.0,0.0,95,0.00,OVC,OVC,0.00,0.0,WeatherDisplay:10.37,2013-06-25 09:42:00,
2013-06-25 04:47:00,71.9,70.4,29.76,NE,41,0.0,0.0,95,0.00,OVC,,0.00,0.0,WeatherDisplay:10.37,2013-06-25 09:47:00,
2013-06-25 04:52:00,71.8,70.3,29.76,NE,41,0.0,0.0,95,0.00,OVC,,0.00,0.0,WeatherDisplay:10.37,2013-06-25 09:52:00,
2013-06-25 04:57:00,71.7,70.2,29.76,NE,41,0.0,0.0,95,0.00,OVC,,0.00,0.0,WeatherDisplay:10.37,2013-06-25 09:57:00,
2013-06-25 05:03:00,71.6,70.4,29.75,NE,41,0.0,0.0,96,0.00,OVC,,0.00,0.0,WeatherDisplay:10.37,2013-06-25 10:03:00,
2013-06-25 05:08:00,71.6,70.4,29.76,NE,41,0.0,0.0,96,0.00,OVC,,0.00,0.0,WeatherDisplay:10.37,2013-06-25 10:08:00,
2013-06-25 05:13:00,71.5,70.3,29.76,NE,41,0.0,0.0,96,0.00,OVC,,0.00,0.0,WeatherDisplay:10.37,2013-06-25 10:13:00,
2013-06-25 05:18:00,71.5,70.3,29.76,NE,41,0.0,0.0,96,0.00,OVC,,0.00,0.0,WeatherDisplay:10.37,2013-06-25 10:18:00,
2013-06-25 05:24:00,71.5,70.3,29.76,NE,41,0.0,0.0,96,0.00,OVC,,0.00,0.0,WeatherDisplay:10.37,2013-06-25 10:24:00,
2013-06-25 05:29:00,71.4,70.2,29.76,NE,41,0.0,0.0,96,0.00,OVC,,0.00,0.0,WeatherDisplay:10.37,2013-06-25 10:29:00,
2013-06-25 05:34:00,71.3,70.1,29.75,NE,41,0.0,0.0,96,0.00,OVC,,0.00,0.0,WeatherDisplay:10.37,2013-06-25 10:34:00,
2013-06-25 05:39:00,71.3,70.1,29.75,NE,41,0.0,0.0,96,0.00,OVC,,0.00,0.0,WeatherDisplay:10.37,2013-06-25 10:39:00,
2013-06-25 05:45:00,71.3,70.1,29.75,NE,41,0.0,0.0,96,0.00,OVC,,0.00,0.0,WeatherDisplay:10.37,2013-06-25 10:45:00,
2013-06-25 05:50:00,71.3,70.1,29.75,NE,41,0.0,0.0,96,0.00,OVC,,0.00,0.0,WeatherDisplay:10.37,2013-06-25 10:50:00,
2013-06-25 05:55:00,71.2,70.0,29.75,NE,41,0.0,0.0,96,0.00,OVC,,0.00,0.0,WeatherDisplay:10.37,2013-06-25 10:55:00,
2013-06-25 06:00:00,71.3,70.1,29.75,SSW,194,0.0,0.0,96,0.00,OVC,,0.00,7.0,WeatherDisplay:10.37,2013-06-25 11:00:00,
2013-06-25 06:06:00,71.3,70.1,29.75,SSW,194,0.0,0.0,96,0.00,OVC,,0.00,12.6,WeatherDisplay:10.37,2013-06-25 11:06:00,
2013-06-25 06:11:00,71.4,70.2,29.76,SSW,194,0.0,0.0,96,0.00,OVC,,0.00,12.6,WeatherDisplay:10.37,2013-06-25 11:11:00,
2013-06-25 06:16:00,71.4,70.2,29.76,SSW,194,0.0,0.0,96,0.00,OVC,,0.00,12.6,WeatherDisplay:10.37,2013-06-25 11:16:00,
2013-06-25 06:21:00,71.5,70.3,29.76,SSW,194,0.0,0.0,96,0.00,OVC,,0.00,9.8,WeatherDisplay:10.37,2013-06-25 11:21:00,
2013-06-25 06:27:00,71.6,70.4,29.76,SSW,194,0.0,0.0,96,0.00,OVC,,0.00,9.8,WeatherDisplay:10.37,2013-06-25 11:27:00,
2013-06-25 06:32:00,71.7,70.2,29.76,SSW,195,0.0,0.0,95,0.00,OVC,OVC,0.00,12.6,WeatherDisplay:10.37,2013-06-25 11:32:00,
2013-06-25 06:37:00,71.7,70.2,29.77,SSW,194,0.0,0.0,95,0.00,OVC,,0.00,15.4,WeatherDisplay:10.37,2013-06-25 11:37:00,
2013-06-25 06:42:00,71.7,70.2,29.76,SSW,194,0.0,0.0,95,0.00,OVC,,0.00,19.6,WeatherDisplay:10.37,2013-06-25 11:42:00,
2013-06-25 06:48:00,71.7,70.2,29.77,SSW,194,0.0,0.0,95,0.00,OVC,,0.00,22.4,WeatherDisplay:10.37,2013-06-25 11:48:00,
2013-06-25 06:53:00,71.8,70.3,29.76,SSW,194,0.0,0.0,95,0.00,OVC,,0.00,25.2,WeatherDisplay:10.37,2013-06-25 11:53:00,
2013-06-25 06:58:00,71.8,70.3,29.76,SSW,194,0.0,0.0,95,0.00,OVC,,0.00,22.4,WeatherDisplay:10.37,2013-06-25 11:58:00,
2013-06-25 07:03:00,71.8,70.3,29.76,South,190,0.0,0.0,95,0.00,OVC,,0.00,22.4,WeatherDisplay:10.37,2013-06-25 12:03:00,
2013-06-25 07:09:00,71.9,70.1,29.76,South,190,0.0,0.0,94,0.00,OVC,,0.00,19.6,WeatherDisplay:10.37,2013-06-25 12:09:00,
2013-06-25 07:14:00,72.0,70.2,29.76,South,190,0.0,0.0,94,0.00,OVC,,0.00,22.4,WeatherDisplay:10.37,2013-06-25 12:14:00,
2013-06-25 07:19:00,72.1,70.3,29.76,South,190,0.0,0.0,94,0.00,OVC,,0.00,29.4,WeatherDisplay:10.37,2013-06-25 12:19:00,
2013-06-25 07:24:00,72.2,70.4,29.77,South,190,0.0,0.0,94,0.00,OVC,,0.00,44.8,WeatherDisplay:10.37,2013-06-25 12:24:00,
2013-06-25 07:30:00,72.3,70.5,29.77,South,185,0.0,0.0,94,0.00,OVC,,0.00,39.2,WeatherDisplay:10.37,2013-06-25 12:30:00,
2013-06-25 07:35:00,72.4,70.6,29.77,South,185,0.0,0.0,94,0.00,OVC,,0.00,54.6,WeatherDisplay:10.37,2013-06-25 12:35:00,
2013-06-25 07:40:00,72.5,70.4,29.77,South,185,0.0,0.0,93,0.00,OVC,,0.00,61.6,WeatherDisplay:10.37,2013-06-25 12:40:00,
2013-06-25 07:45:00,72.6,70.5,29.78,South,184,0.0,0.0,93,0.00,OVC,,0.00,58.8,WeatherDisplay:10.37,2013-06-25 12:45:00,
2013-06-25 07:51:00,72.8,70.7,29.78,South,184,0.0,0.0,93,0.00,OVC,,0.00,84.0,WeatherDisplay:10.37,2013-06-25 12:51:00,
2013-06-25 07:56:00,72.9,71.1,29.78,SSW,192,0.0,0.0,94,0.00,OVC,,0.00,107.8,WeatherDisplay:10.37,2013-06-25 12:56:00,
2013-06-25 08:01:00,73.1,71.3,29.79,South,173,0.0,0.0,94,0.00,OVC,,0.00,135.8,WeatherDisplay:10.37,2013-06-25 13:01:00,
2013-06-25 08:06:00,73.3,71.2,29.79,South,173,0.0,0.0,93,0.00,OVC,,0.00,165.2,WeatherDisplay:10.37,2013-06-25 13:06:00,
2013-06-25 08:12:00,73.6,71.8,29.79,South,173,0.0,0.0,94,0.00,OVC,,0.00,175.0,WeatherDisplay:10.37,2013-06-25 13:12:00,
2013-06-25 08:17:00,73.9,71.7,29.80,South,173,0.0,0.0,93,0.00,OVC,OVC,0.00,208.6,WeatherDisplay:10.37,2013-06-25 13:17:00,
2013-06-25 08:22:00,74.2,72.0,29.80,South,173,0.0,0.0,93,0.00,OVC,,0.00,243.6,WeatherDisplay:10.37,2013-06-25 13:22:00,
2013-06-25 08:27:00,74.4,71.9,29.79,South,173,0.0,0.0,92,0.00,OVC,,0.00,228.2,WeatherDisplay:10.37,2013-06-25 13:27:00,
2013-06-25 08:32:00,74.8,72.0,29.80,South,173,0.0,0.0,91,0.00,OVC,,0.00,239.4,WeatherDisplay:10.37,2013-06-25 13:32:00,
2013-06-25 08:38:00,75.1,72.0,29.80,South,173,0.0,0.0,90,0.00,OVC,,0.00,201.6,WeatherDisplay:10.37,2013-06-25 13:38:00,
2013-06-25 08:43:00,75.4,72.3,29.81,South,173,0.0,0.0,90,0.00,OVC,,0.00,204.4,WeatherDisplay:10.37,2013-06-25 13:43:00,
2013-06-25 08:48:00,75.5,72.0,29.80,South,173,0.0,0.0,89,0.00,OVC,,0.00,218.4,WeatherDisplay:10.37,2013-06-25 13:48:00,
2013-06-25 08:52:00,77.3,73.5,29.82,North,357,0.0,1.0,88,0.00,OVC,OVC,0.00,373.8,WeatherDisplay:10.37,2013-06-25 13:52:00,
2013-06-25 08:53:00,75.7,72.6,29.81,South,173,0.0,0.0,90,0.00,OVC,,0.00,221.2,WeatherDisplay:10.37,2013-06-25 13:53:00,
2013-06-25 08:57:00,77.5,73.7,29.82,SW,222,0.0,0.0,88,0.00,OVC,OVC,0.00,376.6,WeatherDisplay:10.37,2013-06-25 13:57:00,
2013-06-25 08:59:00,75.8,72.3,29.81,South,173,0.0,0.0,89,0.00,OVC,,0.00,273.0,WeatherDisplay:10.37,2013-06-25 13:59:00,
2013-06-25 09:04:00,75.9,72.4,29.81,South,173,0.0,0.0,89,0.00,OVC,,0.00,334.6,WeatherDisplay:10.37,2013-06-25 14:04:00,
2013-06-25 09:09:00,76.2,72.7,29.81,South,173,0.0,0.0,89,0.00,OVC,,0.00,312.2,WeatherDisplay:10.37,2013-06-25 14:09:00,
2013-06-25 09:14:00,76.3,72.8,29.81,SSW,196,0.7,0.0,89,0.00,OVC,,0.00,246.4,WeatherDisplay:10.37,2013-06-25 14:14:00,
2013-06-25 09:20:00,76.5,72.7,29.82,SSW,196,0.0,0.0,88,0.00,OVC,,0.00,197.4,WeatherDisplay:10.37,2013-06-25 14:20:00,
2013-06-25 09:25:00,76.6,72.8,29.81,SSW,196,0.0,0.0,88,0.00,OVC,,0.00,266.0,WeatherDisplay:10.37,2013-06-25 14:25:00,
2013-06-25 09:30:00,76.7,72.5,29.82,SSW,196,0.0,0.0,87,0.00,OVC,,0.00,288.4,WeatherDisplay:10.37,2013-06-25 14:30:00,
2013-06-25 09:35:00,76.7,72.5,29.82,SSW,196,0.0,0.0,87,0.00,OVC,,0.00,359.8,WeatherDisplay:10.37,2013-06-25 14:35:00,
2013-06-25 09:41:00,76.8,72.6,29.82,SSW,196,0.0,0.0,87,0.00,OVC,,0.00,390.6,WeatherDisplay:10.37,2013-06-25 14:41:00,
2013-06-25 09:46:00,77.0,72.8,29.82,SSW,196,0.0,0.0,87,0.00,OVC,,0.00,408.8,WeatherDisplay:10.37,2013-06-25 14:46:00,
2013-06-25 10:02:00,77.8,73.6,29.81,SSW,196,0.0,0.0,87,0.00,OVC,,0.00,418.6,WeatherDisplay:10.37,2013-06-25 15:02:00,
2013-06-25 10:07:00,78.0,73.4,29.82,SSW,198,0.0,2.0,86,0.00,OVC,OVC,0.00,512.4,WeatherDisplay:10.37,2013-06-25 15:07:00,
2013-06-25 10:12:00,78.3,73.8,29.81,ESE,107,0.0,0.0,86,0.00,OVC,,0.00,499.8,WeatherDisplay:10.37,2013-06-25 15:12:00,
2013-06-25 10:17:00,78.6,73.4,29.80,SSE,156,0.7,1.2,84,0.00,OVC,,0.00,546.0,WeatherDisplay:10.37,2013-06-25 15:17:00,
2013-06-25 10:23:00,78.7,73.1,29.80,SSE,156,0.0,0.0,83,0.00,OVC,,0.00,425.6,WeatherDisplay:10.37,2013-06-25 15:23:00,
2013-06-25 10:28:00,78.7,73.5,29.79,SSE,150,0.0,0.0,84,0.00,OVC,,0.00,464.8,WeatherDisplay:10.37,2013-06-25 15:28:00,
2013-06-25 10:33:00,78.6,73.0,29.79,SSE,150,0.0,0.0,83,0.00,OVC,,0.00,462.0,WeatherDisplay:10.37,2013-06-25 15:33:00,
2013-06-25 10:38:00,78.7,73.5,29.78,South,172,0.6,4.6,84,0.00,OVC,,0.00,415.8,WeatherDisplay:10.37,2013-06-25 15:38:00,
2013-06-25 10:44:00,78.5,72.9,29.78,NE,36,0.0,1.2,83,0.00,OVC,,0.00,445.2,WeatherDisplay:10.37,2013-06-25 15:44:00,
2013-06-25 10:49:00,78.5,73.3,29.77,NE,36,0.0,0.0,84,0.00,OVC,,0.00,492.8,WeatherDisplay:10.37,2013-06-25 15:49:00,
2013-06-25 10:54:00,78.8,73.9,29.77,SSE,161,0.0,0.0,85,0.00,OVC,,0.00,814.8,WeatherDisplay:10.37,2013-06-25 15:54:00,
2013-06-25 10:59:00,79.2,73.9,29.77,ESE,103,0.0,0.0,84,0.00,OVC,,0.00,757.4,WeatherDisplay:10.37,2013-06-25 15:59:00,
2013-06-25 11:05:00,79.7,74.1,29.78,SW,219,0.0,0.0,83,0.00,OVC,,0.00,977.2,WeatherDisplay:10.37,2013-06-25 16:05:00,
2013-06-25 11:10:00,80.4,74.4,29.79,East,100,0.1,3.5,82,0.00,OVC,,0.00,1029.0,WeatherDisplay:10.37,2013-06-25 16:10:00,
2013-06-25 11:15:00,81.1,75.1,29.80,SE,144,0.6,3.5,82,0.00,OVC,,0.00,1019.2,WeatherDisplay:10.37,2013-06-25 16:15:00,
2013-06-25 11:20:00,81.8,75.4,29.80,ESE,119,0.1,1.2,81,0.00,OVC,,0.00,1010.8,WeatherDisplay:10.37,2013-06-25 16:20:00,
2013-06-25 11:26:00,82.2,74.7,29.80,South,170,4.6,8.1,78,0.00,OVC,,0.00,1061.2,WeatherDisplay:10.37,2013-06-25 16:26:00,
2013-06-25 11:31:00,82.1,74.6,29.81,South,183,0.0,0.0,78,0.00,OVC,,0.00,652.4,WeatherDisplay:10.37,2013-06-25 16:31:00,
2013-06-25 11:36:00,82.1,74.2,29.80,SSE,150,0.4,2.3,77,0.00,OVC,,0.00,561.4,WeatherDisplay:10.37,2013-06-25 16:36:00,
2013-06-25 11:41:00,81.9,74.7,29.80,SSE,165,1.4,4.0,79,0.00,OVC,,0.00,597.8,WeatherDisplay:10.37,2013-06-25 16:41:00,
2013-06-25 11:47:00,81.7,74.5,29.80,South,184,2.8,5.0,79,0.00,OVC,,0.00,655.2,WeatherDisplay:10.37,2013-06-25 16:47:00,
2013-06-25 11:52:00,81.4,73.9,29.79,SSE,161,1.0,8.0,78,0.00,OVC,OVC,0.00,551.6,WeatherDisplay:10.37,2013-06-25 16:52:00,
2013-06-25 11:57:00,81.5,74.4,29.79,SSE,160,1.0,6.0,79,0.00,OVC,OVC,0.00,1153.6,WeatherDisplay:10.37,2013-06-25 16:57:00,
2013-06-25 12:02:00,82.0,75.2,29.79,SSE,163,1.0,7.0,80,0.00,OVC,OVC,0.00,1377.6,WeatherDisplay:10.37,2013-06-25 17:02:00,
2013-06-25 12:07:00,82.7,74.8,29.79,SSE,157,0.5,4.6,77,0.00,OVC,,0.00,1166.2,WeatherDisplay:10.37,2013-06-25 17:07:00,
2013-06-25 12:12:00,82.9,75.7,29.79,SSW,211,0.5,5.8,79,0.00,OVC,,0.00,1356.6,WeatherDisplay:10.37,2013-06-25 17:12:00,
2013-06-25 12:17:00,83.4,75.4,29.79,SSE,163,0.0,0.0,77,0.00,OVC,,0.00,1338.4,WeatherDisplay:10.37,2013-06-25 17:17:00,
2013-06-25 12:23:00,84.0,75.2,29.79,SSW,192,2.3,4.6,75,0.00,OVC,,0.00,1386.0,WeatherDisplay:10.37,2013-06-25 17:23:00,
2013-06-25 12:28:00,84.5,75.3,29.79,SSE,167,0.5,3.5,74,0.00,OVC,,0.00,1409.8,WeatherDisplay:10.37,2013-06-25 17:28:00,
2013-06-25 12:33:00,84.8,75.2,29.78,SSE,163,0.0,1.2,73,0.00,OVC,,0.00,1367.8,WeatherDisplay:10.37,2013-06-25 17:33:00,
2013-06-25 12:38:00,85.0,75.4,29.78,South,184,0.0,0.0,73,0.00,OVC,,0.00,1380.4,WeatherDisplay:10.37,2013-06-25 17:38:00,
2013-06-25 12:44:00,85.3,76.5,29.78,South,177,1.3,4.0,75,0.00,OVC,,0.00,1444.8,WeatherDisplay:10.37,2013-06-25 17:44:00,
2013-06-25 12:49:00,85.4,74.5,29.78,ENE,76,1.6,3.5,70,0.00,OVC,,0.00,1582.0,WeatherDisplay:10.37,2013-06-25 17:49:00,
2013-06-25 12:54:00,85.0,75.0,29.77,SE,131,0.0,1.2,72,0.00,OVC,,0.00,497.0,WeatherDisplay:10.37,2013-06-25 17:54:00,
2013-06-25 12:59:00,84.3,73.4,29.77,NE,34,0.0,1.0,70,0.00,OVC,,0.00,1457.4,WeatherDisplay:10.37,2013-06-25 17:59:00,
2013-06-25 13:05:00,84.7,74.3,29.76,SE,129,0.0,1.2,71,0.00,BKN,,0.00,1377.6,WeatherDisplay:10.37,2013-06-25 18:05:00,
2013-06-25 13:10:00,85.1,74.2,29.76,SE,144,0.1,1.2,70,0.00,BKN,,0.00,1383.2,WeatherDisplay:10.37,2013-06-25 18:10:00,
2013-06-25 13:15:00,85.5,74.2,29.76,SSE,159,3.9,8.0,69,0.00,BKN,,0.00,1395.8,WeatherDisplay:10.37,2013-06-25 18:15:00,
2013-06-25 13:20:00,86.0,75.1,29.76,SSE,148,0.5,3.0,70,0.00,BKN,,0.00,1409.8,WeatherDisplay:10.37,2013-06-25 18:20:00,
2013-06-25 13:26:00,86.3,74.5,29.76,SSE,168,0.0,0.0,68,0.00,BKN,,0.00,421.4,WeatherDisplay:10.37,2013-06-25 18:26:00,
2013-06-25 13:31:00,86.6,73.4,29.76,SSE,153,2.7,10.4,65,0.00,BKN,,0.00,1419.6,WeatherDisplay:10.37,2013-06-25 18:31:00,
2013-06-25 13:36:00,86.7,73.5,29.76,SE,134,0.0,0.0,65,0.00,BKN,,0.00,1464.4,WeatherDisplay:10.37,2013-06-25 18:36:00,
2013-06-25 13:42:00,86.9,74.2,29.76,SW,229,2.7,2.7,66,0.00,BKN,,0.00,1461.6,WeatherDisplay:10.37,2013-06-25 18:42:00,
2013-06-25 13:47:00,87.3,74.5,29.76,SE,142,1.0,1.2,66,0.00,BKN,,0.00,1444.8,WeatherDisplay:10.37,2013-06-25 18:47:00,
2013-06-25 13:52:00,87.5,71.9,29.76,South,170,2.0,14.0,60,0.00,BKN,BKN,0.00,1439.2,WeatherDisplay:10.37,2013-06-25 18:52:00,
2013-06-25 13:57:00,87.7,74.9,29.76,SSE,165,1.4,4.6,66,0.00,BKN,,0.00,1451.8,WeatherDisplay:10.37,2013-06-25 18:57:00,
2013-06-25 14:02:00,87.6,72.5,29.76,SSE,162,2.8,10.4,61,0.00,BKN,,0.00,581.0,WeatherDisplay:10.37,2013-06-25 19:02:00,
2013-06-25 14:07:00,87.2,70.6,29.76,SSW,209,1.0,10.4,58,0.00,BKN,,0.00,460.6,WeatherDisplay:10.37,2013-06-25 19:07:00,
2013-06-25 14:13:00,86.7,72.6,29.75,SE,140,0.0,0.0,63,0.00,BKN,,0.00,523.6,WeatherDisplay:10.37,2013-06-25 19:13:00,
2013-06-25 14:18:00,86.6,72.5,29.75,SSW,202,0.0,0.0,63,0.00,BKN,,0.00,1572.2,WeatherDisplay:10.37,2013-06-25 19:18:00,
2013-06-25 14:23:00,87.0,73.8,29.75,SSW,211,0.1,1.2,65,0.00,BKN,,0.00,1324.4,WeatherDisplay:10.37,2013-06-25 19:23:00,
2013-06-25 14:28:00,87.6,73.9,29.75,SE,143,0.5,3.5,64,0.00,BKN,,0.00,1380.4,WeatherDisplay:10.37,2013-06-25 19:28:00,
2013-06-25 14:34:00,87.8,72.7,29.75,South,172,0.7,5.8,61,0.00,BKN,,0.00,1530.2,WeatherDisplay:10.37,2013-06-25 19:34:00,
2013-06-25 14:39:00,87.7,71.6,29.75,South,189,0.0,0.0,59,0.00,BKN,,0.00,529.2,WeatherDisplay:10.37,2013-06-25 19:39:00,
2013-06-25 14:44:00,87.4,74.2,29.75,NNE,32,0.0,1.2,65,0.00,BKN,,0.00,1100.4,WeatherDisplay:10.37,2013-06-25 19:44:00,
2013-06-25 14:49:00,87.1,70.5,29.75,South,188,0.0,1.2,58,0.00,BKN,,0.00,337.4,WeatherDisplay:10.37,2013-06-25 19:49:00,
2013-06-25 14:55:00,86.7,72.6,29.75,South,188,0.0,0.0,63,0.00,BKN,,0.00,659.4,WeatherDisplay:10.37,2013-06-25 19:55:00,
2013-06-25 15:00:00,86.6,73.0,29.75,SE,124,1.8,10.4,64,0.00,BKN,,0.00,1353.8,WeatherDisplay:10.37,2013-06-25 20:00:00,
2013-06-25 15:05:00,87.0,74.3,29.74,South,179,0.1,1.2,66,0.00,BKN,,0.00,827.4,WeatherDisplay:10.37,2013-06-25 20:05:00,
2013-06-25 15:10:00,87.2,73.1,29.74,SSE,161,0.9,3.5,63,0.00,BKN,,0.00,536.2,WeatherDisplay:10.37,2013-06-25 20:10:00,
2013-06-25 15:16:00,87.1,73.0,29.74,SSW,200,1.3,3.5,63,0.00,BKN,,0.00,1071.0,WeatherDisplay:10.37,2013-06-25 20:16:00,
2013-06-25 15:21:00,87.4,73.7,29.74,SE,134,1.5,3.5,64,0.00,BKN,,0.00,1087.8,WeatherDisplay:10.37,2013-06-25 20:21:00,
2013-06-25 15:26:00,87.6,73.4,29.74,South,178,0.6,2.3,63,0.00,BKN,,0.00,655.2,WeatherDisplay:10.37,2013-06-25 20:26:00,
2013-06-25 15:31:00,87.8,75.0,29.74,SE,137,0.1,3.0,66,0.00,BKN,,0.00,379.4,WeatherDisplay:10.37,2013-06-25 20:31:00,
2013-06-25 15:37:00,87.4,72.8,29.75,NE,47,0.5,3.5,62,0.00,BKN,,0.00,390.6,WeatherDisplay:10.37,2013-06-25 20:37:00,
2013-06-25 15:42:00,86.8,72.2,29.74,SE,133,0.0,4.0,62,0.00,BKN,BKN,0.00,357.0,WeatherDisplay:10.37,2013-06-25 20:42:00,
2013-06-25 15:47:00,86.3,72.3,29.74,SSW,209,0.0,4.0,63,0.00,BKN,BKN,0.00,344.4,WeatherDisplay:10.37,2013-06-25 20:47:00,
2013-06-25 15:52:00,85.9,72.8,29.74,SSE,152,0.0,0.0,65,0.00,BKN,,0.00,428.4,WeatherDisplay:10.37,2013-06-25 20:52:00,
2013-06-25 15:57:00,85.7,72.6,29.74,South,174,0.0,3.5,65,0.00,BKN,,0.00,473.2,WeatherDisplay:10.37,2013-06-25 20:57:00,
2013-06-25 16:03:00,85.7,72.6,29.74,South,174,0.0,0.0,65,0.00,BKN,,0.00,411.6,WeatherDisplay:10.37,2013-06-25 21:03:00,
2013-06-25 16:08:00,85.5,72.4,29.73,South,173,0.0,3.5,65,0.00,BKN,,0.00,359.8,WeatherDisplay:10.37,2013-06-25 21:08:00,
2013-06-25 16:13:00,85.3,71.3,29.73,South,173,0.0,0.0,63,0.00,BKN,,0.00,441.0,WeatherDisplay:10.37,2013-06-25 21:13:00,
2013-06-25 16:18:00,85.2,72.6,29.73,SSW,196,0.0,0.0,66,0.00,BKN,,0.00,637.0,WeatherDisplay:10.37,2013-06-25 21:18:00,
2013-06-25 16:24:00,85.3,72.2,29.73,South,184,0.0,0.0,65,0.00,BKN,,0.00,957.6,WeatherDisplay:10.37,2013-06-25 21:24:00,
2013-06-25 16:29:00,85.8,73.6,29.72,South,185,0.0,0.0,67,0.00,BKN,,0.00,418.6,WeatherDisplay:10.37,2013-06-25 21:29:00,
2013-06-25 16:34:00,86.2,73.0,29.72,ESE,119,0.0,0.0,65,0.00,BKN,,0.00,964.6,WeatherDisplay:10.37,2013-06-25 21:34:00,
2013-06-25 16:39:00,86.5,74.7,29.72,East,101,0.8,2.0,68,0.00,BKN,,0.00,954.8,WeatherDisplay:10.37,2013-06-25 21:39:00,
2013-06-25 16:45:00,86.6,73.4,29.72,South,188,0.0,0.0,65,0.00,BKN,,0.00,359.8,WeatherDisplay:10.37,2013-06-25 21:45:00,
2013-06-25 16:50:00,86.2,73.0,29.72,ESE,118,0.0,0.0,65,0.00,BKN,,0.00,428.4,WeatherDisplay:10.37,2013-06-25 21:50:00,
2013-06-25 16:55:00,86.1,73.9,29.71,SSE,160,0.6,3.5,67,0.00,BKN,,0.00,883.4,WeatherDisplay:10.37,2013-06-25 21:55:00,
2013-06-25 17:00:00,86.2,74.4,29.71,South,173,0.8,2.0,68,0.00,BKN,,0.00,376.6,WeatherDisplay:10.37,2013-06-25 22:00:00,
2013-06-25 17:06:00,85.9,73.7,29.70,SSW,205,0.3,1.2,67,0.00,BKN,,0.00,477.4,WeatherDisplay:10.37,2013-06-25 22:06:00,
2013-06-25 17:11:00,85.6,73.8,29.70,SSW,208,0.0,0.0,68,0.00,BKN,,0.00,457.8,WeatherDisplay:10.37,2013-06-25 22:11:00,
2013-06-25 17:16:00,85.5,73.7,29.70,SSE,153,1.2,3.5,68,0.00,BKN,,0.00,415.8,WeatherDisplay:10.37,2013-06-25 22:16:00,
2013-06-25 17:21:00,85.3,73.5,29.70,SSE,155,0.6,2.0,68,0.00,BKN,,0.00,275.8,WeatherDisplay:10.37,2013-06-25 22:21:00,
2013-06-25 17:27:00,85.0,74.1,29.70,SSW,210,0.1,1.2,70,0.00,BKN,,0.00,275.8,WeatherDisplay:10.37,2013-06-25 22:27:00,
2013-06-25 17:32:00,84.9,73.6,29.70,SE,131,0.0,4.0,69,0.00,BKN,BKN,0.00,289.8,WeatherDisplay:10.37,2013-06-25 22:32:00,
2013-06-25 17:37:00,84.9,74.4,29.70,NE,43,0.4,3.5,71,0.00,BKN,,0.00,273.0,WeatherDisplay:10.37,2013-06-25 22:37:00,
2013-06-25 17:42:00,84.7,73.8,29.70,NE,48,0.0,0.0,70,0.00,BKN,,0.00,217.0,WeatherDisplay:10.37,2013-06-25 22:42:00,
2013-06-25 17:47:00,84.6,74.2,29.70,SSE,156,0.0,2.3,71,0.00,BKN,,0.00,217.0,WeatherDisplay:10.37,2013-06-25 22:47:00,
2013-06-25 17:53:00,84.5,74.5,29.70,SSE,155,0.0,0.0,72,0.00,BKN,,0.00,182.0,WeatherDisplay:10.37,2013-06-25 22:53:00,
2013-06-25 17:58:00,84.3,74.7,29.71,SSE,167,0.0,0.0,73,0.00,BKN,,0.00,162.4,WeatherDisplay:10.37,2013-06-25 22:58:00,
2013-06-25 18:03:00,84.2,74.6,29.71,East,82,0.0,1.2,73,0.00,BKN,,0.00,168.0,WeatherDisplay:10.37,2013-06-25 23:03:00,
2013-06-25 18:08:00,84.0,75.2,29.70,SW,225,0.2,1.2,75,0.00,BKN,,0.00,194.6,WeatherDisplay:10.37,2013-06-25 23:08:00,
2013-06-25 18:14:00,83.9,75.5,29.71,SW,221,0.0,1.0,76,0.00,BKN,,0.00,204.4,WeatherDisplay:10.37,2013-06-25 23:14:00,
2013-06-25 18:19:00,83.8,75.0,29.71,SW,232,0.0,0.0,75,0.00,BKN,,0.00,187.6,WeatherDisplay:10.37,2013-06-25 23:19:00,
2013-06-25 18:24:00,83.8,75.0,29.70,SW,221,0.4,3.5,75,0.00,BKN,,0.00,172.2,WeatherDisplay:10.37,2013-06-25 23:24:00,
2013-06-25 18:29:00,83.7,74.9,29.70,SW,221,0.0,0.0,75,0.00,BKN,,0.00,162.4,WeatherDisplay:10.37,2013-06-25 23:29:00,
2013-06-25 18:35:00,83.7,75.3,29.70,SW,221,0.0,0.0,76,0.00,BKN,,0.00,135.8,WeatherDisplay:10.37,2013-06-25 23:35:00,
2013-06-25 18:40:00,83.5,75.1,29.70,SSW,207,0.0,0.0,76,0.00,BKN,,0.00,117.6,WeatherDisplay:10.37,2013-06-25 23:40:00,
2013-06-25 18:45:00,83.4,75.0,29.70,SSW,207,0.0,0.0,76,0.00,BKN,,0.00,107.8,WeatherDisplay:10.37,2013-06-25 23:45:00,
2013-06-25 18:50:00,83.3,75.3,29.71,SSW,207,0.0,0.0,77,0.00,BKN,,0.00,96.6,WeatherDisplay:10.37,2013-06-25 23:50:00,
2013-06-25 18:56:00,83.2,75.6,29.71,SSW,207,0.0,0.0,78,0.00,BKN,,0.00,96.6,WeatherDisplay:10.37,2013-06-25 23:56:00,
2013-06-25 19:01:00,83.1,75.1,29.71,South,183,0.0,0.0,77,0.00,BKN,,0.00,86.8,WeatherDisplay:10.37,2013-06-26 00:01:00,
2013-06-25 19:06:00,83.0,75.0,29.70,South,188,0.0,0.0,77,0.00,BKN,,0.00,71.4,WeatherDisplay:10.37,2013-06-26 00:06:00,
2013-06-25 19:11:00,82.9,74.9,29.70,SSE,161,1.0,1.2,77,0.00,BKN,,0.00,64.4,WeatherDisplay:10.37,2013-06-26 00:11:00,
2013-06-25 19:17:00,82.8,74.8,29.70,SSE,165,0.1,1.2,77,0.00,BKN,,0.00,74.2,WeatherDisplay:10.37,2013-06-26 00:17:00,
2013-06-25 19:22:00,82.7,74.8,29.71,SSE,157,0.0,4.0,77,0.00,BKN,BKN,0.00,81.2,WeatherDisplay:10.37,2013-06-26 00:22:00,
2013-06-25 19:27:00,82.7,74.7,29.70,South,179,0.0,1.0,77,0.00,BKN,BKN,0.00,68.6,WeatherDisplay:10.37,2013-06-26 00:27:00,
2013-06-25 19:32:00,82.6,74.7,29.71,SSW,207,0.0,3.5,77,0.00,BKN,,0.00,56.0,WeatherDisplay:10.37,2013-06-26 00:32:00,
2013-06-25 19:37:00,82.5,74.6,29.71,SSW,207,0.0,0.0,77,0.00,BKN,,0.00,46.2,WeatherDisplay:10.37,2013-06-26 00:37:00,
2013-06-25 19:43:00,82.5,74.9,29.70,SSW,207,0.0,0.0,78,0.00,BKN,,0.00,56.0,WeatherDisplay:10.37,2013-06-26 00:43:00,
2013-06-25 19:48:00,82.3,74.7,29.71,SSW,207,0.0,0.0,78,0.00,BKN,,0.00,36.4,WeatherDisplay:10.37,2013-06-26 00:48:00,
2013-06-25 19:53:00,82.3,75.1,29.71,SSW,207,0.0,0.0,79,0.00,BKN,,0.00,16.8,WeatherDisplay:10.37,2013-06-26 00:53:00,
2013-06-25 19:58:00,82.2,74.7,29.71,SSE,167,0.0,0.0,78,0.00,BKN,,0.00,12.6,WeatherDisplay:10.37,2013-06-26 00:58:00,
2013-06-25 20:04:00,82.1,74.9,29.71,SSE,167,0.0,0.0,79,0.00,OVC,,0.00,12.6,WeatherDisplay:10.37,2013-06-26 01:04:00,
2013-06-25 20:09:00,82.1,74.9,29.71,SSE,167,0.0,0.0,79,0.00,OVC,,0.00,9.8,WeatherDisplay:10.37,2013-06-26 01:09:00,
2013-06-25 20:14:00,82.1,74.9,29.71,SSE,157,0.0,0.0,79,0.00,OVC,,0.00,9.8,WeatherDisplay:10.37,2013-06-26 01:14:00,
2013-06-25 20:19:00,82.1,74.9,29.71,SSE,157,0.0,0.0,79,0.00,OVC,,0.00,9.8,WeatherDisplay:10.37,2013-06-26 01:19:00,
2013-06-25 20:25:00,82.0,74.8,29.70,SSE,157,0.0,0.0,79,0.00,OVC,,0.00,12.6,WeatherDisplay:10.37,2013-06-26 01:25:00,
2013-06-25 20:30:00,82.0,74.8,29.70,SSE,157,0.0,0.0,79,0.00,OVC,,0.00,9.8,WeatherDisplay:10.37,2013-06-26 01:30:00,
2013-06-25 20:35:00,81.8,75.0,29.70,SSE,157,0.0,0.0,80,0.00,OVC,,0.00,7.0,WeatherDisplay:10.37,2013-06-26 01:35:00,
2013-06-25 20:40:00,81.6,74.8,29.70,SSE,157,0.0,0.0,80,0.00,OVC,,0.00,0.0,WeatherDisplay:10.37,2013-06-26 01:40:00,
2013-06-25 20:46:00,81.5,74.7,29.70,SE,133,0.2,2.0,80,0.00,OVC,,0.00,0.0,WeatherDisplay:10.37,2013-06-26 01:46:00,
2013-06-25 20:51:00,81.4,75.0,29.70,SE,133,0.0,0.0,81,0.00,OVC,,0.00,0.0,WeatherDisplay:10.37,2013-06-26 01:51:00,
2013-06-25 20:56:00,81.3,74.9,29.70,SE,133,0.0,0.0,81,0.00,OVC,,0.00,0.0,WeatherDisplay:10.37,2013-06-26 01:56:00,
2013-06-25 21:01:00,81.2,74.8,29.70,ESE,120,0.0,0.0,81,0.00,OVC,,0.00,0.0,WeatherDisplay:10.37,2013-06-26 02:01:00,
2013-06-25 21:07:00,81.3,74.9,29.70,SSE,159,0.1,3.5,81,0.00,OVC,,0.00,0.0,WeatherDisplay:10.37,2013-06-26 02:07:00,
2013-06-25 21:12:00,81.4,75.0,29.70,SSE,153,0.0,1.0,81,0.00,OVC,OVC,0.00,0.0,WeatherDisplay:10.37,2013-06-26 02:12:00,
2013-06-25 21:17:00,81.4,75.0,29.70,SSE,159,0.2,0.0,81,0.00,OVC,,0.00,0.0,WeatherDisplay:10.37,2013-06-26 02:17:00,
2013-06-25 21:22:00,81.4,75.0,29.70,SE,144,0.0,0.0,81,0.00,OVC,,0.00,0.0,WeatherDisplay:10.37,2013-06-26 02:22:00,
2013-06-25 21:27:00,81.4,75.0,29.70,SSE,167,0.0,0.0,81,0.00,OVC,,0.00,0.0,WeatherDisplay:10.37,2013-06-26 02:27:00,
2013-06-25 21:33:00,81.3,75.3,29.70,South,174,0.0,0.0,82,0.00,OVC,,0.00,0.0,WeatherDisplay:10.37,2013-06-26 02:33:00,
2013-06-25 21:38:00,81.2,75.2,29.71,SSE,167,0.0,0.0,82,0.00,OVC,,0.00,0.0,WeatherDisplay:10.37,2013-06-26 02:38:00,
2013-06-25 21:43:00,81.0,75.3,29.71,SSE,167,0.0,0.0,83,0.00,OVC,,0.00,0.0,WeatherDisplay:10.37,2013-06-26 02:43:00,
2013-06-25 21:48:00,80.9,75.2,29.70,SSE,167,0.0,0.0,83,0.00,OVC,,0.00,0.0,WeatherDisplay:10.37,2013-06-26 02:48:00,
2013-06-25 21:54:00,80.7,75.4,29.70,SSE,167,0.0,0.0,84,0.00,OVC,,0.00,0.0,WeatherDisplay:10.37,2013-06-26 02:54:00,
2013-06-25 21:59:00,80.5,75.2,29.70,SSE,167,0.0,0.0,84,0.00,OVC,,0.00,0.0,WeatherDisplay:10.37,2013-06-26 02:59:00,
2013-06-25 22:04:00,80.3,75.0,29.71,SSE,167,0.0,0.0,84,0.00,OVC,,0.00,0.0,WeatherDisplay:10.37,2013-06-26 03:04:00,
2013-06-25 22:09:00,80.2,75.3,29.71,SSW,202,0.0,0.0,85,0.00,OVC,,0.00,0.0,WeatherDisplay:10.37,2013-06-26 03:09:00,
2013-06-25 22:15:00,80.1,75.2,29.71,South,179,0.0,0.0,85,0.00,OVC,,0.00,0.0,WeatherDisplay:10.37,2013-06-26 03:15:00,
2013-06-25 22:20:00,80.1,75.2,29.71,ESE,115,0.0,0.0,85,0.00,OVC,,0.00,0.0,WeatherDisplay:10.37,2013-06-26 03:20:00,
2013-06-25 22:25:00,80.0,75.1,29.71,ESE,115,0.0,0.0,85,0.00,OVC,,0.00,0.0,WeatherDisplay:10.37,2013-06-26 03:25:00,
2013-06-25 22:30:00,79.9,75.0,29.70,ESE,115,0.0,0.0,85,0.00,OVC,,0.00,0.0,WeatherDisplay:10.37,2013-06-26 03:30:00,
2013-06-25 22:36:00,79.7,74.8,29.71,ESE,115,0.0,0.0,85,0.00,OVC,,0.00,0.0,WeatherDisplay:10.37,2013-06-26 03:36:00,
2013-06-25 22:41:00,79.6,75.0,29.71,ESE,115,0.0,0.0,86,0.00,OVC,,0.00,0.0,WeatherDisplay:10.37,2013-06-26 03:41:00,
2013-06-25 22:46:00,79.5,74.9,29.70,ESE,115,0.0,0.0,86,0.00,OVC,,0.00,0.0,WeatherDisplay:10.37,2013-06-26 03:46:00,
2013-06-25 22:51:00,79.4,74.8,29.70,ESE,115,0.0,0.0,86,0.00,OVC,,0.00,0.0,WeatherDisplay:10.37,2013-06-26 03:51:00,
2013-06-25 22:57:00,79.3,75.1,29.70,ESE,115,0.0,0.0,87,0.00,OVC,,0.00,0.0,WeatherDisplay:10.37,2013-06-26 03:57:00,
2013-06-25 23:01:00,79.2,75.0,29.70,ESE,115,0.0,0.0,87,0.00,BKN,,0.00,0.0,WeatherDisplay:10.37,2013-06-26 04:01:00,
2013-06-25 23:02:00,79.2,75.0,29.70,ESE,115,0.0,0.0,87,0.00,BKN,,0.00,0.0,WeatherDisplay:10.37,2013-06-26 04:02:00,
2013-06-25 23:05:00,79.1,74.9,29.70,ESE,115,0.0,0.0,87,0.00,BKN,,0.00,0.0,WeatherDisplay:10.37,2013-06-26 04:05:00,
2013-06-25 23:10:00,79.0,74.8,29.70,ESE,115,0.0,0.0,87,0.00,BKN,,0.00,0.0,WeatherDisplay:10.37,2013-06-26 04:10:00,
2013-06-25 23:15:00,78.8,74.9,29.70,ESE,115,0.0,0.0,88,0.00,BKN,,0.00,0.0,WeatherDisplay:10.37,2013-06-26 04:15:00,
2013-06-25 23:20:00,78.7,74.8,29.70,ESE,115,0.0,0.0,88,0.00,BKN,,0.00,0.0,WeatherDisplay:10.37,2013-06-26 04:20:00,
2013-06-25 23:26:00,78.5,74.6,29.69,ESE,115,0.0,0.0,88,0.00,BKN,,0.00,0.0,WeatherDisplay:10.37,2013-06-26 04:26:00,
2013-06-25 23:31:00,78.4,74.5,29.69,SSE,155,0.2,1.2,88,0.00,BKN,,0.00,0.0,WeatherDisplay:10.37,2013-06-26 04:31:00,
2013-06-25 23:36:00,78.4,74.5,29.69,SE,132,0.0,1.0,88,0.00,BKN,,0.00,0.0,WeatherDisplay:10.37,2013-06-26 04:36:00,
2013-06-25 23:41:00,78.4,74.2,29.69,SE,132,0.0,0.0,87,0.00,BKN,,0.00,0.0,WeatherDisplay:10.37,2013-06-26 04:41:00,
2013-06-25 23:47:00,78.4,74.2,29.69,SE,132,0.0,0.0,87,0.00,BKN,,0.00,0.0,WeatherDisplay:10.37,2013-06-26 04:47:00,
2013-06-25 23:52:00,78.5,74.3,29.69,SE,132,0.0,0.0,87,0.00,BKN,BKN,0.00,0.0,WeatherDisplay:10.37,2013-06-26 04:52:00,
2013-06-25 23:57:00,78.5,74.3,29.69,SE,132,0.0,0.0,87,0.00,BKN,BKN,0.00,0.0,WeatherDisplay:10.37,2013-06-26 04:57:00,